{"data":{"norad_id":68160,"epoch":"2026-09-20T00:08:36.258144Z","epoch_age_seconds":98825,"freshness":"FRESH","line1":"1 68160U 26049U   26263.00597521  .00016652  00000+0  51706-3 0  9991","line2":"2 68160  97.2851 282.9414 0001668  98.4283 261.7148 15.33439467 29421","mean_motion":15.33439467,"eccentricity":0.0001668,"inclination_deg":97.2851,"raan_deg":282.9414,"arg_perigee_deg":98.4283,"mean_anomaly_deg":261.7148,"bstar":0.00051706,"rev_number":2942,"period_min":93.906543491879,"perigee_km":464.41810824381,"apogee_km":466.70116544186,"semimajor_km":6843.6966368428,"source":"CELESTRAK","updated_at":"2026-09-20T09:00:43.796003Z"}}